Regional Weather Roundup
Issued by NWS Sioux Falls, SD

Home | Current Version | Previous Version | Graphics & Text | Print | Product List | Glossary On
Versions: 1 2 3 4 5 6 7 8 9 10 11 12 13 14 15 16 17 18 19 20 21 22 23 24 25 26 27 28 29 30 31 32 33 34 35 36 37 38 39 40 41 42 43 44 45 46 47 48 49 50
000
ASUS43 KFSD 312210
RWRFSD

WEATHER ROUNDUP FOR SE SOUTH DAKOTA/SW MINNESOTA/NW IOWA
NATIONAL WEATHER SERVICE SIOUX FALLS SD
500 PM CDT THU JUL 31 2014

NOTE: "FAIR" INDICATES FEW OR NO CLOUDS BELOW 12,000 FEET WITH NO
SIGNIFICANT WEATHER AND OR OBSTRUCTIONS TO VISIBILITY.


SDZ038>040-050-052>070-312300-
SOUTHEAST SOUTH DAKOTA

CITY           SKY/WX    TMP DP  RH WIND       PRES   REMARKS
CHAMBERLAIN    PTSUNNY   84  57  39 E8        30.04F
HURON          SUNNY     82  53  36 CALM      30.04S
MADISON        FAIR      77  55  47 N12       30.06F
MITCHELL       PTSUNNY   80  63  55 NE5       30.04F
SIOUX FALLS    MOSUNNY   79  59  50 W7        30.05F
WINNER         MOCLDY    86  51  29 VRB7      30.05F
YANKTON        PTSUNNY   73  57  56 E10       30.06F
$$

MNZ071-072-080-081-089-090-097-098-312300-
SOUTHWEST MINNESOTA

CITY           SKY/WX    TMP DP  RH WIND       PRES   REMARKS
FAIRMONT       MOSUNNY   82  55  39 NE3       30.04F
JACKSON        MOSUNNY   77  55  47 CALM      30.05F
LUVERNE        MOSUNNY   75  59  57 SW7       30.05F
MARSHALL       NOT AVBL
MONTEVIDEO     MOSUNNY   84  55  37 NW8       30.04F
PIPESTONE      SUNNY     81  48  32 N8        30.06S
REDWOOD FALLS  MOSUNNY   83  53  35 NW7       30.02F
TRACY          SUNNY     80  55  41 N5        30.04F
WINDOM         MOSUNNY   79  55  44 CALM      30.05S
WORTHINGTON    SUNNY     75  57  53 SW6       30.07S
$$

IAZ001>003-012>014-020>022-031-032-NEZ013-014-SDZ071-312300-
NORTHWEST IOWA

CITY           SKY/WX    TMP DP  RH WIND       PRES   REMARKS
CHEROKEE       MOSUNNY   74  57  54 SW6       30.06F
DENISON        CLOUDY    68  64  88 NE6       30.06F
ESTHERVILLE    PTSUNNY   78  56  46 CALM      30.04F
LE MARS        MOSUNNY   75  59  57 SW6       30.07F
ORANGE CITY    MOSUNNY   75  57  53 SW6       30.07F
SHELDON        MOSUNNY   75  63  64 W6        30.05F
SIOUX CITY     CLOUDY    74  63  68 E8        30.05F
SPENCER        MOSUNNY   79  59  50 S6        30.05F
STORM LAKE     MOSUNNY   75  59  57 SW8       30.08F
$$

ABBREVIATIONS USED IN REMARKS
   TC - TEMPERATURE IN CELSIUS
  WCI - WIND CHILL INDEX
   HX - HEAT INDEX
  VSB - VISIBILITY



USA.gov is the U.S. government's official web portal to all federal, state and local government web resources and services.